Weather in Tigil

Russia / Kamchatka Krai     57°45′40″N   158°40′53″E
temp.,
°C
wind,
m/s
gust,
m/s
humid.,
%
clouds,
%
prec.,
mm/h
press.,
hPa
HPBL,
m
28 february, sun
sun2800:00−13ne2381100 0.0 101724
03:00−13ne3381100 0.0 101743
06:00−16ne348196 0.0 101533
09:00−14nne2383100 0.0 101434
12:00−9ne3781100 0.0 1012297
15:00−8nne588599 0.0 1009455
18:00−11n4790100 0.0 1007157
21:00−15nnw3394100 0.0 100652
1 march, mon
mon100:00−13nnw2590100 0.0 1003126
03:00−12n3784100 0.0 1001176
06:00−15nnw4793100 0.0 1000259
09:00−17n5894100 0.3 999313
12:00−17n6890100 0.4 999442
15:00−17n5791100 0.0 999553
18:00−18n5892100 0.1 999516
21:00−19nnw4992100 0.0 1002463
2 march, tue
tue200:00−20nnw3891100 0.0 1005294
03:00−20wnw2393100 0.0 100766
06:00−20w2396100 0.1 101074
09:00−19wsw3497100 0.1 1014103
12:00−17wsw3390100 0.1 1016404
15:00−15ssw2283100 0.1 1018566
18:00−16se3490100 0.2 1019114
21:00−20se338555 0.0 102223
3 march, wed
wed300:00−18se359878 0.1 102499
03:00−16s459173 0.2 102474
06:00−16sse338783 0.2 102429
09:00−15se2482100 0.0 102173
12:00−10ene71171100 0.1 1015761
15:00−9e81381100 0.3 1005781
18:00−7ese71575100 0.5 994633
21:00−4e81475100 0.1 985471
4 march, thu
thu400:00−3ese91981100 1.0 973513
03:000se92177100 0.3 964516
06:00−6s12227369 0.4 9701087
09:00−14sw91793100 0.2 9821236
12:00−12wsw142186100 0.6 9862121
15:00−13wsw152382100 0.3 9902309
18:00−12wsw152378100 0.6 9922134
21:00−12wsw8188791 0.1 9941491